RYR3029 LEIB-LEBL

Flight info

Callsign RYR3029
Flight time 0h 32m
Altitude 24000
Route EPAMA N856 MARTA
Aircraft B738/M-SDE2E3FGHIRWXY/LB1

Departure

Time 2026-04-30 11:23
Airport Ibiza Airport (LEIB)

Arrival

Time 2026-04-30 11:56
Airport Josep Tarradellas Barcelona-El Prat Airport (LEBL)
Time Latitude Longitude Altitude Speed Heading
2026-04-30 10:57 38.87435 1.36586 7 ft 0 kts 10°
2026-04-30 11:13 38.87436 1.36586 7 ft 0 kts 14°
2026-04-30 11:13 38.87439 1.36589 7 ft 1 kts 28°
2026-04-30 11:14 38.87442 1.36596 7 ft 1 kts 63°
2026-04-30 11:14 38.87440 1.36608 7 ft 2 kts 108°
2026-04-30 11:14 38.87428 1.36616 7 ft 2 kts 159°
2026-04-30 11:14 38.87412 1.36625 7 ft 3 kts 154°
2026-04-30 11:15 38.87389 1.36643 7 ft 5 kts 138°
2026-04-30 11:15 38.87392 1.36686 7 ft 6 kts 64°
2026-04-30 11:15 38.87413 1.36741 7 ft 8 kts 63°
2026-04-30 11:15 38.87398 1.36800 7 ft 9 kts 145°
2026-04-30 11:16 38.87340 1.36839 8 ft 10 kts 153°
2026-04-30 11:16 38.87282 1.36852 8 ft 8 kts 218°
2026-04-30 11:16 38.87254 1.36788 8 ft 8 kts 242°
2026-04-30 11:16 38.87228 1.36726 8 ft 8 kts 242°
2026-04-30 11:17 38.87203 1.36664 8 ft 8 kts 243°
2026-04-30 11:17 38.87180 1.36605 7 ft 7 kts 243°
2026-04-30 11:17 38.87157 1.36548 7 ft 7 kts 242°
2026-04-30 11:17 38.87134 1.36493 8 ft 7 kts 242°
2026-04-30 11:18 38.87112 1.36440 7 ft 7 kts 242°
2026-04-30 11:18 38.87067 1.36335 7 ft 7 kts 241°
2026-04-30 11:18 38.87047 1.36284 7 ft 6 kts 244°
2026-04-30 11:19 38.87027 1.36234 7 ft 6 kts 242°
2026-04-30 11:19 38.86990 1.36214 7 ft 6 kts 168°
2026-04-30 11:19 38.86965 1.36228 6 ft 0 kts 152°
2026-04-30 11:21 38.86964 1.36229 6 ft 1 kts 152°
2026-04-30 11:22 38.86933 1.36249 5 ft 8 kts 153°
2026-04-30 11:22 38.86886 1.36302 5 ft 10 kts 105°
2026-04-30 11:22 38.86899 1.36379 6 ft 7 kts 63°
2026-04-30 11:22 38.86973 1.36559 6 ft 58 kts 62°
2026-04-30 11:23 38.87291 1.37326 9 ft 134 kts 62°
2026-04-30 11:23 38.87804 1.38581 357 ft 168 kts 62°
2026-04-30 11:23 38.88611 1.41524 1899 ft 197 kts 77°
2026-04-30 11:24 38.88928 1.43330 2454 ft 214 kts 77°
2026-04-30 11:24 38.89248 1.45232 3111 ft 221 kts 77°
2026-04-30 11:24 38.89583 1.47167 3863 ft 224 kts 77°
2026-04-30 11:25 38.90300 1.51154 5524 ft 231 kts 77°
2026-04-30 11:25 38.90667 1.53173 6384 ft 235 kts 75°
2026-04-30 11:25 38.92817 1.56609 7330 ft 278 kts 40°
2026-04-30 11:26 38.95854 1.59997 8814 ft 296 kts 41°
2026-04-30 11:26 38.97408 1.61770 9665 ft 301 kts 41°
2026-04-30 11:26 38.98979 1.63574 10510 ft 305 kts 41°
2026-04-30 11:27 39.00715 1.65089 11287 ft 309 kts 19°
2026-04-30 11:27 39.02833 1.65675 12125 ft 309 kts
2026-04-30 11:27 39.04983 1.65941 12955 ft 312 kts
2026-04-30 11:27 39.07162 1.66204 13712 ft 317 kts
2026-04-30 11:28 39.11511 1.65595 14950 ft 329 kts 334°
2026-04-30 11:28 39.13660 1.64413 15129 ft 351 kts 333°
2026-04-30 11:28 39.15925 1.63102 15616 ft 362 kts 332°
2026-04-30 11:29 39.18234 1.61762 16332 ft 366 kts 333°
2026-04-30 11:29 39.20564 1.60423 17115 ft 368 kts 333°
2026-04-30 11:29 39.25288 1.57741 18511 ft 374 kts 333°
2026-04-30 11:30 39.30036 1.55071 20198 ft 369 kts 332°
2026-04-30 11:30 39.32382 1.53755 21026 ft 367 kts 332°
2026-04-30 11:30 39.34718 1.52442 21776 ft 366 kts 332°
2026-04-30 11:31 39.37049 1.51130 22519 ft 365 kts 331°
2026-04-30 11:31 39.39368 1.49825 23240 ft 363 kts 331°
2026-04-30 11:31 39.41683 1.48522 23909 ft 363 kts 331°
2026-04-30 11:31 39.44002 1.47213 24049 ft 363 kts 331°
2026-04-30 11:32 39.46307 1.45914 24073 ft 361 kts 330°
2026-04-30 11:32 39.48614 1.44611 24083 ft 362 kts 330°
2026-04-30 11:32 39.50926 1.43303 24090 ft 367 kts 331°
2026-04-30 11:33 39.55805 1.40534 24091 ft 397 kts 331°
2026-04-30 11:33 39.58348 1.39092 24083 ft 411 kts 331°
2026-04-30 11:33 39.61074 1.37770 24047 ft 430 kts 343°
2026-04-30 11:33 39.64105 1.37333 24094 ft 444 kts 351°
2026-04-30 11:34 39.67218 1.36998 24082 ft 452 kts 351°
2026-04-30 11:34 39.70348 1.36632 24063 ft 450 kts 350°
2026-04-30 11:34 39.73455 1.36248 24070 ft 448 kts 350°
2026-04-30 11:34 39.76558 1.35849 24068 ft 447 kts 349°
2026-04-30 11:35 39.79650 1.35443 24076 ft 446 kts 349°
2026-04-30 11:35 39.82735 1.35034 24077 ft 445 kts 349°
2026-04-30 11:35 39.85813 1.34624 24077 ft 445 kts 349°
2026-04-30 11:35 39.88893 1.34213 24078 ft 445 kts 349°
2026-04-30 11:36 39.91972 1.33803 24086 ft 444 kts 349°
2026-04-30 11:36 39.94996 1.33406 24064 ft 428 kts 349°
2026-04-30 11:36 39.97893 1.33030 24079 ft 410 kts 349°
2026-04-30 11:36 40.00675 1.32666 24072 ft 393 kts 349°
2026-04-30 11:37 40.03307 1.32319 24067 ft 378 kts 349°
2026-04-30 11:37 40.05911 1.31974 24074 ft 364 kts 348°
2026-04-30 11:37 40.08372 1.31644 23842 ft 358 kts 348°
2026-04-30 11:37 40.10825 1.31314 23588 ft 352 kts 348°
2026-04-30 11:38 40.13259 1.30984 23255 ft 350 kts 348°
2026-04-30 11:38 40.15671 1.30658 22924 ft 348 kts 348°
2026-04-30 11:38 40.18072 1.30335 22585 ft 346 kts 349°
2026-04-30 11:38 40.20456 1.30015 22244 ft 344 kts 349°
2026-04-30 11:39 40.22831 1.29697 21903 ft 342 kts 349°
2026-04-30 11:39 40.25194 1.29381 21561 ft 340 kts 349°
2026-04-30 11:39 40.27546 1.29066 21221 ft 339 kts 349°
2026-04-30 11:39 40.29883 1.28752 20881 ft 337 kts 349°
2026-04-30 11:40 40.32214 1.28438 20546 ft 336 kts 349°
2026-04-30 11:40 40.34538 1.28167 20200 ft 337 kts 356°
2026-04-30 11:40 40.36848 1.28768 19863 ft 343 kts 19°
2026-04-30 11:40 40.39030 1.30058 19571 ft 345 kts 22°
2026-04-30 11:41 40.41189 1.31454 19247 ft 347 kts 24°
2026-04-30 11:41 40.43357 1.32879 18917 ft 348 kts 24°
2026-04-30 11:41 40.45493 1.34273 18589 ft 348 kts 24°
2026-04-30 11:41 40.47660 1.35675 18260 ft 347 kts 23°
2026-04-30 11:42 40.49827 1.37066 17932 ft 346 kts 23°
2026-04-30 11:42 40.51984 1.38444 17598 ft 343 kts 23°
2026-04-30 11:42 40.54122 1.39807 17271 ft 341 kts 24°
2026-04-30 11:42 40.56246 1.41160 16948 ft 338 kts 24°
2026-04-30 11:43 40.58351 1.42504 16634 ft 335 kts 24°
2026-04-30 11:43 40.60443 1.43837 16319 ft 333 kts 24°
2026-04-30 11:43 40.62518 1.45163 15974 ft 331 kts 25°
2026-04-30 11:43 40.64566 1.46587 15480 ft 335 kts 27°
2026-04-30 11:44 40.66613 1.48081 14996 ft 338 kts 27°
2026-04-30 11:44 40.68672 1.49599 14505 ft 340 kts 27°
2026-04-30 11:44 40.70745 1.51125 14021 ft 342 kts 27°
2026-04-30 11:44 40.72834 1.52654 13521 ft 344 kts 27°
2026-04-30 11:45 40.74932 1.54186 13007 ft 344 kts 28°
2026-04-30 11:45 40.77013 1.55704 12500 ft 339 kts 28°
2026-04-30 11:45 40.79057 1.57195 12016 ft 333 kts 28°
2026-04-30 11:45 40.81070 1.58663 11533 ft 328 kts 28°
2026-04-30 11:46 40.83056 1.60111 11051 ft 324 kts 28°
2026-04-30 11:46 40.84987 1.61518 10592 ft 319 kts 28°
2026-04-30 11:46 40.86918 1.62925 10129 ft 314 kts 28°
2026-04-30 11:46 40.88789 1.64292 10033 ft 298 kts 29°
2026-04-30 11:47 40.90585 1.65605 9513 ft 298 kts 29°
2026-04-30 11:47 40.92387 1.66921 9125 ft 293 kts 29°
2026-04-30 11:47 40.94175 1.68230 8772 ft 288 kts 29°
2026-04-30 11:47 40.95912 1.69501 8433 ft 282 kts 29°
2026-04-30 11:48 40.97620 1.70729 8106 ft 278 kts 26°
2026-04-30 11:48 40.99406 1.71713 7795 ft 277 kts 20°
2026-04-30 11:48 41.01214 1.72577 7484 ft 276 kts 20°
2026-04-30 11:48 41.02992 1.73413 7166 ft 274 kts 20°
2026-04-30 11:49 41.04778 1.74263 6843 ft 271 kts 20°
2026-04-30 11:49 41.06543 1.75115 6539 ft 269 kts 20°
2026-04-30 11:49 41.08296 1.75968 6212 ft 268 kts 21°
2026-04-30 11:49 41.10048 1.76827 5844 ft 268 kts 21°
2026-04-30 11:50 41.11778 1.77677 5516 ft 264 kts 21°
2026-04-30 11:50 41.13498 1.78526 5221 ft 264 kts 21°
2026-04-30 11:50 41.15221 1.79377 4921 ft 264 kts 21°
2026-04-30 11:50 41.16939 1.80227 4608 ft 264 kts 21°
2026-04-30 11:51 41.18661 1.81079 4298 ft 263 kts 21°
2026-04-30 11:51 41.20344 1.82016 4018 ft 260 kts 33°
2026-04-30 11:51 41.21516 1.83770 3791 ft 255 kts 63°
2026-04-30 11:51 41.22241 1.85915 3449 ft 255 kts 66°
2026-04-30 11:52 41.22969 1.88057 3124 ft 252 kts 65°
2026-04-30 11:52 41.23680 1.90142 2774 ft 244 kts 66°
2026-04-30 11:52 41.24361 1.92144 2463 ft 229 kts 66°
2026-04-30 11:52 41.24999 1.94021 2165 ft 216 kts 66°
2026-04-30 11:53 41.25599 1.95785 1878 ft 203 kts 66°
2026-04-30 11:53 41.26163 1.97442 1615 ft 192 kts 66°
2026-04-30 11:53 41.26692 1.98997 1377 ft 176 kts 66°
2026-04-30 11:53 41.27169 2.00396 1191 ft 154 kts 66°
2026-04-30 11:54 41.27583 2.01614 995 ft 134 kts 66°
2026-04-30 11:54 41.27969 2.02736 796 ft 132 kts 65°
2026-04-30 11:54 41.28345 2.03855 629 ft 130 kts 66°
2026-04-30 11:54 41.28714 2.04949 461 ft 131 kts 65°
2026-04-30 11:55 41.29082 2.06035 268 ft 130 kts 68°
2026-04-30 11:55 41.29360 2.06825 137 ft 129 kts 65°
2026-04-30 11:55 41.29816 2.08161 21 ft 109 kts 65°
2026-04-30 11:55 41.30068 2.08899 18 ft 62 kts 65°
2026-04-30 11:56 41.30201 2.09279 16 ft 42 kts 59°
2026-04-30 11:56 41.30367 2.09501 16 ft 18 kts 38°
2026-04-30 11:56 41.30478 2.09508 17 ft 17 kts 326°
2026-04-30 11:56 41.30493 2.09417 18 ft 8 kts 248°
2026-04-30 11:57 41.30464 2.09335 18 ft 13 kts 245°
2026-04-30 11:57 41.30423 2.09214 19 ft 15 kts 246°
2026-04-30 11:57 41.30378 2.09083 17 ft 18 kts 245°
2026-04-30 11:57 41.30340 2.08972 17 ft 21 kts 246°
2026-04-30 11:58 41.30283 2.08804 18 ft 23 kts 245°
2026-04-30 11:58 41.30218 2.08616 19 ft 22 kts 245°
2026-04-30 11:58 41.30178 2.08501 19 ft 22 kts 246°
2026-04-30 11:58 41.30118 2.08321 18 ft 21 kts 244°
2026-04-30 11:59 41.30056 2.08144 18 ft 22 kts 246°
2026-04-30 11:59 41.29987 2.07943 16 ft 25 kts 245°
2026-04-30 11:59 41.29932 2.07767 15 ft 12 kts 270°
2026-04-30 11:59 41.29998 2.07695 18 ft 13 kts 334°
2026-04-30 12:00 41.30069 2.07626 21 ft 13 kts 335°
2026-04-30 12:00 41.30135 2.07557 20 ft 13 kts 285°
2026-04-30 12:00 41.30140 2.07525 20 ft 0 kts 279°